Location: Warszawa
(52.2500°N, 21.0000°E)
Time: 20:57:53
(UTC+02:00)

Vanguard 2 - Pass Details

Date: 04 February 2023
Orbit: 553 x 2927 km, 32.9° (Epoch: 27 March)

Event Time Altitude Azimuth Distance (km) Brightness Sun altitude
Rises 22:12:43 0° 236° (SW) 5,588 12.0 -49.1°
Reaches altitude 10° 22:16:26 10° 228° (SW) 4,879 11.5 -49.4°
Enters shadow 22:16:41 11° 227° (SW) 4,838 11.5 -49.4°
